Simultaneous Nadir Overpasses (SNOs) Predictions

Prediction of SNOs between GOES-16 and METOP-C Satellite Orbit:

Table of predicted SNOs for the next 14.0 days since TLE Epoch: 9/15/2024
Index Date Time (GOES-16) GOES-16 Lat,Lon METOP-C Lat,Lon Distance(km) Time Diff (sec)
1 09/16/2024 14:39:14 -0.05, -75.22 0.43, -77.33 241.78 80
2 09/17/2024 14:21:15 -0.05, -75.22 -0.70, -72.35 328.11 80
3 09/19/2024 02:37:37 0.05, -75.23 -0.33, -76.94 195.04 80
4 09/20/2024 02:19:38 0.05, -75.24 0.81, -71.95 375.25 80
5 09/21/2024 14:35:50 -0.05, -75.27 0.20, -76.52 141.69 80
6 09/22/2024 14:17:51 -0.05, -75.28 -0.89, -71.52 428.90 80
7 09/24/2024 02:34:11 0.05, -75.29 -0.16, -76.11 93.42 80
8 09/25/2024 02:16:13 0.04, -75.30 1.01, -71.12 477.50 80
9 09/26/2024 14:32:24 -0.04, -75.34 0.02, -75.68 38.22 80
10 09/29/2024 02:30:45 0.04, -75.38 0.08, -75.27 12.93 80
